| time (UTC) | temp C | wind direction | speed KPH | gust KPH | rain 1hr cm | rain 24hr cm | rain mn cm | humidity % | barometer mb |
| 20260507051609 | 7 | 293 | 4.8 | 9.7 | 0.00 | 0.00 | 0.00 | 97 | 1015.4 |
| 20260507050007 | 7 | 284 | 3.2 | 4.8 | 0.00 | 0.00 | 0.00 | 96 | 1014.9 |
| 20260507044408 | 7 | 300 | 1.6 | 4.8 | 0.00 | 0.00 | 0.00 | 96 | 1014.8 |
| 20260507042808 | 7 | 282 | 1.6 | 9.7 | 0.00 | 0.00 | 0.00 | 97 | 1014.6 |
| 20260507041208 | 7 | 285 | 0.0 | 9.7 | 0.00 | 0.00 | 0.00 | 97 | 1014.4 |
| 20260507035608 | 7 | 305 | 1.6 | 9.7 | 0.00 | 0.00 | 0.00 | 98 | 1014.2 |
| 20260507034007 | 7 | 291 | 0.0 | 6.4 | 0.00 | 0.00 | 0.00 | 98 | 1014.3 |
| 20260507032409 | 7 | 289 | 4.8 | 9.7 | 0.00 | 0.00 | 0.00 | 98 | 1014.2 |
| 20260507030811 | 7 | 292 | 1.6 | 9.7 | 0.00 | 0.00 | 0.00 | 98 | 1014.2 |
| 20260507025209 | 8 | 301 | 3.2 | 9.7 | 0.00 | 0.00 | 0.00 | 97 | 1014.0 |
| 20260507023607 | 8 | 298 | 1.6 | 6.4 | 0.00 | 0.00 | 0.00 | 97 | 1013.8 |
| 20260507022010 | 8 | 298 | 4.8 | 9.7 | 0.00 | 0.03 | 0.00 | 96 | 1014.0 |
| 20260507020408 | 8 | 299 | 3.2 | 9.7 | 0.00 | 0.08 | 0.00 | 97 | 1014.0 |
| 20260507014809 | 8 | 302 | 0.0 | 6.4 | 0.00 | 0.13 | 0.00 | 98 | 1013.8 |
| 20260507013207 | 8 | 296 | 4.8 | 9.7 | 0.00 | 0.20 | 0.00 | 98 | 1013.9 |
| 20260507011608 | 8 | 301 | 0.0 | 9.7 | 0.00 | 0.23 | 0.00 | 98 | 1013.7 |
| 20260507010008 | 8 | 293 | 0.0 | 6.4 | 0.00 | 0.28 | 0.00 | 97 | 1013.6 |
| 20260507004407 | 8 | 289 | 3.2 | 12.9 | 0.00 | 0.28 | 0.00 | 96 | 1013.6 |
| 20260507002808 | 8 | 291 | 3.2 | 9.7 | 0.00 | 0.28 | 0.00 | 96 | 1013.6 |
| 20260507001208 | 8 | 276 | 3.2 | 6.4 | 0.00 | 0.28 | 0.00 | 96 | 1013.5 |
| 20260506235609 | 8 | 293 | 4.8 | 9.7 | 0.00 | 0.28 | 0.00 | 97 | 1013.4 |
| 20260506234007 | 9 | 307 | 1.6 | 6.4 | 0.00 | 0.28 | 0.00 | 97 | 1013.5 |
| 20260506232408 | 8 | 301 | 1.6 | 6.4 | 0.00 | 0.28 | 0.00 | 98 | 1013.2 |
| 20260506230811 | 9 | 293 | 3.2 | 6.4 | 0.00 | 0.28 | 0.00 | 98 | 1013.2 |
| 20260506225207 | 9 | 291 | 1.6 | 6.4 | 0.00 | 0.28 | 0.00 | 97 | 1013.1 |
| 20260506223608 | 9 | 287 | 3.2 | 6.4 | 0.00 | 0.28 | 0.00 | 97 | 1013.1 |
| 20260506222011 | 9 | 295 | 3.2 | 6.4 | 0.00 | 0.28 | 0.00 | 98 | 1012.9 |
| 20260506220407 | 10 | 301 | 0.0 | 4.8 | 0.00 | 0.28 | 0.00 | 97 | 1012.9 |
| 20260506214808 | 10 | 337 | 0.0 | 3.2 | 0.00 | 0.28 | 0.28 | 97 | 1012.9 |
| 20260506213208 | 10 | 352 | 1.6 | 9.7 | 0.00 | 0.28 | 0.28 | 97 | 1012.7 |
| 20260506211609 | 10 | 37 | 1.6 | 9.7 | 0.00 | 0.30 | 0.28 | 96 | 1012.8 |
| 20260506210007 | 10 | 352 | 3.2 | 9.7 | 0.00 | 0.30 | 0.28 | 95 | 1012.5 |
| 20260506204408 | 10 | 343 | 1.6 | 9.7 | 0.00 | 0.30 | 0.28 | 94 | 1012.3 |
| 20260506202808 | 11 | 303 | 0.0 | 9.7 | 0.00 | 0.36 | 0.28 | 93 | 1012.3 |
| 20260506201207 | 11 | 338 | 0.0 | 9.7 | 0.00 | 0.41 | 0.28 | 93 | 1012.4 |
| 20260506195609 | 11 | 305 | 4.8 | 9.7 | 0.00 | 0.46 | 0.28 | 93 | 1012.0 |
| 20260506194007 | 12 | 314 | 3.2 | 9.7 | 0.00 | 0.56 | 0.28 | 92 | 1011.8 |
| 20260506192407 | 12 | 323 | 3.2 | 4.8 | 0.00 | 0.64 | 0.28 | 89 | 1011.4 |
| 20260506190810 | 12 | 297 | 3.2 | 6.4 | 0.00 | 0.76 | 0.28 | 86 | 1011.2 |
| 20260506185207 | 13 | 274 | 1.6 | 9.7 | 0.00 | 0.91 | 0.28 | 85 | 1011.1 |
| 20260506183607 | 13 | 238 | 4.8 | 9.7 | 0.00 | 1.04 | 0.28 | 84 | 1010.8 |
| 20260506182012 | 13 | 274 | 3.2 | 6.4 | 0.00 | 1.07 | 0.28 | 84 | 1010.8 |
| 20260506180409 | 13 | 268 | 0.0 | 9.7 | 0.00 | 1.19 | 0.28 | 82 | 1010.9 |
| 20260506174810 | 13 | 274 | 1.6 | 9.7 | 0.00 | 1.30 | 0.28 | 82 | 1010.6 |
| 20260506173210 | 14 | 284 | 3.2 | 14.5 | 0.00 | 1.37 | 0.28 | 80 | 1010.3 |
| 20260506171610 | 14 | 272 | 8.0 | 12.9 | 0.00 | 1.85 | 0.28 | 78 | 1010.4 |
| 20260506170007 | 16 | 265 | 3.2 | 12.9 | 0.00 | 2.06 | 0.28 | 70 | 1010.2 |
| 20260506164406 | 16 | 257 | 9.7 | 17.7 | 0.00 | 2.06 | 0.28 | 65 | 1010.2 |
| 20260506162810 | 17 | 252 | 4.8 | 12.9 | 0.00 | 2.06 | 0.28 | 65 | 1009.9 |
| 20260506161210 | 17 | 230 | 6.4 | 12.9 | 0.00 | 2.06 | 0.28 | 62 | 1009.7 |
| 20260506155606 | 17 | 223 | 4.8 | 16.1 | 0.00 | 2.06 | 0.28 | 60 | 1010.0 |
| 20260506154008 | 17 | 251 | 3.2 | 12.9 | 0.00 | 2.06 | 0.28 | 60 | 1010.0 |
| 20260506152408 | 19 | 233 | 4.8 | 14.5 | 0.00 | 2.06 | 0.28 | 55 | 1009.8 |
| 20260506150811 | 17 | 234 | 6.4 | 19.3 | 0.00 | 2.06 | 0.28 | 58 | 1010.0 |
| 20260506145208 | 18 | 204 | 3.2 | 27.4 | 0.00 | 2.06 | 0.28 | 56 | 1009.9 |
| 20260506143607 | 17 | 244 | 4.8 | 16.1 | 0.00 | 2.06 | 0.28 | 62 | 1010.1 |
| 20260506142008 | 18 | 241 | 6.4 | 17.7 | 0.00 | 2.06 | 0.28 | 60 | 1010.0 |
| 20260506140408 | 18 | 224 | 6.4 | 14.5 | 0.00 | 2.06 | 0.28 | 62 | 1010.1 |
| 20260506134809 | 17 | 236 | 6.4 | 17.7 | 0.00 | 2.06 | 0.28 | 61 | 1009.8 |
| 20260506133206 | 17 | 218 | 6.4 | 14.5 | 0.00 | 2.06 | 0.28 | 62 | 1010.0 |
| 20260506131735 | 17 | 218 | 8.0 | 14.5 | 0.00 | 2.06 | 0.28 | 63 | 1010.0 |
| 20260506131609 | 17 | 218 | 8.0 | 14.5 | 0.00 | 2.06 | 0.28 | 63 | 1010.0 |
| 20260506130007 | 17 | 201 | 4.8 | 14.5 | 0.00 | 2.06 | 0.28 | 62 | 1010.2 |
| 20260506124406 | 17 | 219 | 4.8 | 20.9 | 0.00 | 2.06 | 0.28 | 63 | 1010.2 |
| 20260506122808 | 17 | 224 | 4.8 | 12.9 | 0.00 | 2.06 | 0.28 | 64 | 1010.3 |
| 20260506121208 | 16 | 205 | 4.8 | 16.1 | 0.00 | 2.06 | 0.28 | 66 | 1010.2 |
| 20260506115609 | 16 | 204 | 8.0 | 16.1 | 0.00 | 2.06 | 0.28 | 66 | 1010.4 |
| 20260506114008 | 17 | 212 | 8.0 | 17.7 | 0.00 | 2.06 | 0.28 | 64 | 1010.3 |
| 20260506112407 | 16 | 220 | 8.0 | 20.9 | 0.00 | 2.06 | 0.28 | 66 | 1010.3 |
| 20260506110811 | 17 | 200 | 4.8 | 16.1 | 0.00 | 2.06 | 0.28 | 63 | 1010.4 |
| 20260506105209 | 16 | 204 | 8.0 | 19.3 | 0.00 | 2.06 | 0.28 | 64 | 1010.5 |
| 20260506103609 | 15 | 199 | 8.0 | 16.1 | 0.00 | 2.06 | 0.28 | 70 | 1010.7 |
| 20260506102013 | 15 | 223 | 4.8 | 19.3 | 0.00 | 2.06 | 0.28 | 73 | 1010.6 |
| 20260506100411 | 15 | 216 | 4.8 | 27.4 | 0.00 | 2.06 | 0.28 | 72 | 1010.7 |
| 20260506094812 | 15 | 242 | 6.4 | 17.7 | 0.00 | 2.06 | 0.28 | 70 | 1010.5 |
| 20260506093209 | 15 | 216 | 4.8 | 24.1 | 0.00 | 2.06 | 0.28 | 75 | 1010.9 |
| 20260506091610 | 15 | 210 | 8.0 | 20.9 | 0.00 | 2.06 | 0.28 | 76 | 1010.6 |
| 20260506090009 | 14 | 218 | 6.4 | 19.3 | 0.00 | 2.06 | 0.28 | 81 | 1010.5 |
| 20260506084408 | 15 | 208 | 4.8 | 24.1 | 0.00 | 2.06 | 0.28 | 81 | 1010.4 |
| 20260506081209 | 13 | 216 | 4.8 | 17.7 | 0.00 | 2.06 | 0.28 | 86 | 1010.2 |
| 20260506072409 | 12 | 214 | 8.0 | 16.1 | 0.00 | 2.06 | 0.28 | 93 | 1010.2 |
| 20260506070814 | 12 | 193 | 3.2 | 16.1 | 0.00 | 2.06 | 0.28 | 94 | 1010.2 |
| 20260506062009 | 12 | 207 | 3.2 | 9.7 | 0.00 | 2.06 | 0.28 | 99 | 1010.2 |
| 20260506060412 | 11 | 209 | 4.8 | 16.1 | 0.00 | 2.06 | 0.28 | 99 | 1010.1 |